Location: R�serve Fauniques des Laurentides
(47.3100°N, 71.1900°W)
Time: 09:17:47
(UTC-04:00)

Amateur Radio Satellites - All Passes

Search period start: 01 November 2014 08:47
Search period end: 02 November 2014 07:47
Location: R�serve Fauniques des Laurentides, 47.3100°N, 71.1900°W

Satellite Date Start Highest point End Downlink Frequencies (MHz)
Time Altitude Azimuth
Sapphire 01 Nov 08:56:57 09:00:24 17° 29° (NNE) 09:03:50 437.095 MHz 1200 baud AX-25 AFSK
RS-15 01 Nov 09:07:15 09:10:50 12° 267° (W) 09:14:28 29.354 - 29.394 USB, Beacon 29.352 USB
KITSAT 1 01 Nov 09:10:16 09:14:34 16° 99° (E) 09:18:52 435.175 FM
Oscar 11 01 Nov 09:11:30 09:11:53 10° 87° (E) 09:12:17 145.825 FM, Beacon 2401.500 USB
JAS-2 01 Nov 09:16:13 09:19:15 13° 317° (NW) 09:22:17 435.800 - 435.900 CW/SSB, 435.910 FM
HO-68 01 Nov 09:16:22 09:23:09 42° 98° (E) 09:29:51 435.675 MHz FM
PCSat 01 Nov 09:18:18 09:22:28 22° 35° (NE) 09:26:36 145.825 MHz
ISS 01 Nov 09:53:32 09:56:22 26° 141° (SE) 09:59:13 145.800 FM
UKube-1 01 Nov 10:10:16 10:14:25 41° 99° (E) 10:18:32 145.840 MHz, 145.915 MHz
ZACube-1 01 Nov 10:21:22 10:24:47 24° 93° (E) 10:28:09 437.345 MHz
Sapphire 01 Nov 10:39:37 10:45:00 59° 52° (NE) 10:50:21 437.095 MHz 1200 baud AX-25 AFSK
Oscar 11 01 Nov 10:44:22 10:48:42 88° 284° (WNW) 10:53:01 145.825 FM, Beacon 2401.500 USB
KITSAT 1 01 Nov 11:00:31 11:08:31 70° 119° (ESE) 11:16:33 435.175 FM
PCSat 01 Nov 11:01:11 11:06:40 87° 57° (ENE) 11:12:05 145.825 MHz
SO-50 01 Nov 11:01:16 11:05:37 49° 121° (ESE) 11:10:06 436.795 FM
FUNcube-1 01 Nov 11:03:30 11:07:42 65° 101° (ESE) 11:11:49 145.950 - 145.970 MHz USB
HO-68 01 Nov 11:04:08 11:10:54 46° 298° (WNW) 11:17:39 435.675 MHz FM
JAS-1B 01 Nov 11:17:49 11:19:02 11° 46° (NE) 11:20:15 435.800 - 435.900 CW/SSB
Oscar 16 01 Nov 11:24:42 11:25:24 10° 51° (NE) 11:26:07 437.025 USB, Beacon 2401.1428
ISS 01 Nov 11:29:33 11:32:52 66° 340° (NNW) 11:36:12 145.800 FM
UOSAT-12 01 Nov 11:42:07 11:44:41 15° 109° (ESE) 11:47:16 437.025 FM, 437.400 FM
UKube-1 01 Nov 11:46:55 11:50:23 24° 297° (WNW) 11:53:51 145.840 MHz, 145.915 MHz
ZACube-1 01 Nov 11:57:27 12:01:17 35° 292° (WNW) 12:05:04 437.345 MHz
Saudisat 1A 01 Nov 12:04:56 12:07:42 16° 28° (NNE) 12:10:28 436.775 MHz
ITAMSAT 1 01 Nov 12:07:05 12:08:18 11° 51° (NE) 12:09:31 435.822 SSB
Oscar 19 01 Nov 12:12:39 12:16:45 25° 62° (ENE) 12:20:51 437.125 CW, 437.150 USB
Oscar 11 01 Nov 12:22:45 12:24:12 12° 303° (WNW) 12:25:38 145.825 FM, Beacon 2401.500 USB
Sapphire 01 Nov 12:23:41 12:28:03 25° 251° (WSW) 12:32:25 437.095 MHz 1200 baud AX-25 AFSK
FUNcube-1 01 Nov 12:41:14 12:43:35 15° 300° (WNW) 12:45:55 145.950 - 145.970 MHz USB
SO-50 01 Nov 12:42:20 12:46:23 30° 321° (NW) 12:50:33 436.795 FM
PCSat 01 Nov 12:46:11 12:49:20 16° 256° (WSW) 12:52:28 145.825 MHz
AO-27 01 Nov 12:51:26 12:55:35 25° 61° (ENE) 12:59:46 436.795 MHz FM
HO-68 01 Nov 12:54:28 12:56:53 12° 320° (NW) 12:59:19 435.675 MHz FM
KITSAT 1 01 Nov 12:57:04 13:04:31 39° 323° (NW) 13:12:01 435.175 FM
Oscar 16 01 Nov 12:58:41 13:03:44 59° 71° (ENE) 13:08:47 437.025 USB, Beacon 2401.1428
JAS-1B 01 Nov 13:02:49 13:08:23 60° 69° (ENE) 13:14:08 435.800 - 435.900 CW/SSB
ISS 01 Nov 13:06:46 13:09:54 37° 359° (N) 13:13:03 145.800 FM
AO-7 01 Nov 13:11:21 13:15:22 15° 36° (NE) 13:19:24 29.400 - 29.500 MHz
Gurwin Techsat 1B 01 Nov 13:12:56 13:16:51 21° 59° (ENE) 13:20:46 435.225 FM
TMSAT-1 01 Nov 13:19:04 13:22:37 19° 58° (ENE) 13:26:11 436.925 FM
UOSAT-12 01 Nov 13:19:30 13:24:10 84° 308° (NW) 13:28:56 437.025 FM, 437.400 FM
AO-Echo 01 Nov 13:25:27 13:30:21 54° 70° (ENE) 13:35:26 ?
Uribyol 2 01 Nov 13:33:27 13:38:32 55° 70° (ENE) 13:43:39 436.500 FM
ITAMSAT 1 01 Nov 13:41:38 13:46:45 60° 70° (ENE) 13:51:55 435.822 SSB
Saudisat 1A 01 Nov 13:43:41 13:48:07 65° 49° (NE) 13:52:30 436.775 MHz
Oscar 19 01 Nov 13:50:47 13:55:47 52° 260° (W) 14:00:48 437.125 CW, 437.150 USB
SO-50 01 Nov 14:26:51 14:28:28 12° 345° (NNW) 14:30:06 436.795 FM
AO-27 01 Nov 14:29:40 14:34:46 54° 259° (W) 14:39:55 436.795 MHz FM
Oscar 16 01 Nov 14:39:42 14:43:28 20° 269° (W) 14:47:16 437.025 USB, Beacon 2401.1428
ISS 01 Nov 14:43:38 14:46:57 62° 19° (NNE) 14:50:16 145.800 FM
Gurwin Techsat 1B 01 Nov 14:51:04 14:56:20 66° 258° (WSW) 15:01:39 435.225 FM
JAS-1B 01 Nov 14:55:32 14:59:42 21° 270° (W) 15:03:55 435.800 - 435.900 CW/SSB
TMSAT-1 01 Nov 14:56:38 15:01:57 77° 256° (WSW) 15:07:18 436.925 FM
KITSAT 1 01 Nov 14:56:42 15:02:31 21° 351° (N) 15:08:20 435.175 FM
AO-7 01 Nov 14:58:24 15:06:12 48° 59° (ENE) 15:14:02 29.400 - 29.500 MHz
UOSAT-12 01 Nov 15:01:32 15:05:02 20° 329° (NNW) 15:08:34 437.025 FM, 437.400 FM
AO-Echo 01 Nov 15:05:34 15:09:28 22° 269° (W) 15:13:29 ?
Uribyol 2 01 Nov 15:14:15 15:18:20 23° 268° (W) 15:22:26 436.500 FM
Uosat F 01 Nov 15:18:34 15:22:55 30° 64° (ENE) 15:27:18 435.120 FM
ITAMSAT 1 01 Nov 15:22:48 15:26:40 21° 269° (W) 15:30:32 435.822 SSB
Saudisat 1A 01 Nov 15:24:13 15:27:14 18° 248° (WSW) 15:30:13 436.775 MHz
JAS-2 01 Nov 15:59:29 16:05:05 30° 57° (ENE) 16:11:13 435.800 - 435.900 CW/SSB, 435.910 FM
SO-50 01 Nov 16:10:17 16:11:14 11° 11° (N) 16:12:11 436.795 FM
ISS 01 Nov 16:20:32 16:23:29 29° 218° (SW) 16:26:26 145.800 FM
TMSAT-1 01 Nov 16:41:19 16:42:45 11° 275° (W) 16:44:12 436.925 FM
AO-7 01 Nov 16:51:10 16:59:02 47° 260° (W) 17:06:58 29.400 - 29.500 MHz
KITSAT 1 01 Nov 16:54:42 17:01:09 25° 21° (NNE) 17:07:34 435.175 FM
Uosat F 01 Nov 16:56:52 17:01:35 40° 262° (W) 17:06:20 435.120 FM
Hamsat 01 Nov 17:20:26 17:24:31 57° 73° (ENE) 17:28:38 145.90 MHz
OPAL 01 Nov 17:26:58 17:31:04 25° 96° (E) 17:35:08 ?
JAS-2 01 Nov 17:43:08 17:49:32 65° 260° (W) 17:56:49 435.800 - 435.900 CW/SSB, 435.910 FM
SO-50 01 Nov 17:49:37 17:53:31 24° 34° (NE) 17:57:28 436.795 FM
HO-68 01 Nov 18:06:48 18:08:56 12° 40° (NE) 18:11:03 435.675 MHz FM
UOSAT-12 01 Nov 18:27:15 18:29:21 13° 19° (NNE) 18:31:27 437.025 FM, 437.400 FM
KITSAT 1 01 Nov 18:50:21 18:58:21 60° 48° (NE) 19:06:19 435.175 FM
SO-67 01 Nov 18:53:11 18:56:37 79° 76° (ENE) 19:00:04 435.3500 MHz FM
Hamsat 01 Nov 18:58:26 19:00:51 15° 270° (W) 19:03:15 145.90 MHz
OPAL 01 Nov 19:05:26 19:10:10 45° 294° (WNW) 19:14:51 ?
RS-15 01 Nov 19:10:34 19:17:14 19° 98° (E) 19:23:52 29.354 - 29.394 USB, Beacon 29.352 USB
STRAND 1 01 Nov 19:24:48 19:29:50 51° 100° (E) 19:34:49 ?
SO-50 01 Nov 19:29:46 19:34:37 78° 235° (SW) 19:39:30 436.795 FM
JAS-2 01 Nov 19:33:50 19:36:14 12° 282° (WNW) 19:38:45 435.800 - 435.900 CW/SSB, 435.910 FM
HO-68 01 Nov 19:48:10 19:54:52 44° 62° (ENE) 20:01:35 435.675 MHz FM
UOSAT-12 01 Nov 20:06:29 20:10:52 36° 41° (NE) 20:15:12 437.025 FM, 437.400 FM
Oscar 11 01 Nov 20:08:45 20:10:55 14° 59° (ENE) 20:13:05 145.825 FM, Beacon 2401.500 USB
Oscar 10/S400 01 Nov 20:14:22 20:49:07 44° 198° (SSW) 02:31:11 145.825 - 145.975 CW/USB, Beacon 145.810 USB
FUNcube-1 01 Nov 20:30:14 20:31:15 11° 57° (ENE) 20:32:17 145.950 - 145.970 MHz USB
AO-40 01 Nov 20:38:53 22:36:38 23° 214° (SW) 01:03:36 Beacon 2401.320
KITSAT 1 01 Nov 20:46:10 20:53:28 39° 249° (WSW) 21:00:45 435.175 FM
STRAND 1 01 Nov 21:04:34 21:08:44 26° 298° (WNW) 21:12:53 ?
UKube-1 01 Nov 21:08:29 21:12:44 54° 71° (ENE) 21:17:00 145.840 MHz, 145.915 MHz
MaSat-1 01 Nov 21:10:02 21:12:37 18° 110° (ESE) 21:15:03 437.345 MHz
SO-50 01 Nov 21:12:39 21:14:24 12° 253° (WSW) 21:16:08 436.795 FM
RS-15 01 Nov 21:16:37 21:27:29 73° 121° (ESE) 21:38:22 29.354 - 29.394 USB, Beacon 29.352 USB
ZACube-1 01 Nov 21:20:34 21:24:30 31° 67° (ENE) 21:28:23 437.345 MHz
HO-68 01 Nov 21:35:49 21:42:35 44° 262° (W) 21:49:24 435.675 MHz FM
Oscar 11 01 Nov 21:42:13 21:46:32 76° 258° (WSW) 21:50:52 145.825 FM, Beacon 2401.500 USB
UOSAT-12 01 Nov 21:46:40 21:51:05 40° 241° (WSW) 21:55:25 437.025 FM, 437.400 FM
FUNcube-1 01 Nov 22:02:24 22:06:54 78° 75° (ENE) 22:11:20 145.950 - 145.970 MHz USB
MaSat-1 01 Nov 22:44:17 22:47:47 39° 304° (WNW) 22:50:57 437.345 MHz
UKube-1 01 Nov 22:46:21 22:49:15 17° 269° (W) 22:52:09 145.840 MHz, 145.915 MHz
ZACube-1 01 Nov 22:56:52 23:00:52 31° 264° (W) 23:04:49 437.345 MHz
RS-15 01 Nov 23:30:17 23:40:39 46° 328° (NNW) 23:51:11 29.354 - 29.394 USB, Beacon 29.352 USB
FUNcube-1 01 Nov 23:41:55 23:43:48 12° 272° (W) 23:45:40 145.950 - 145.970 MHz USB
JAS-1B 02 Nov 00:42:42 00:47:03 16° 88° (E) 00:51:44 435.800 - 435.900 CW/SSB
Oscar 16 02 Nov 01:08:22 01:11:31 16° 89° (E) 01:14:39 437.025 USB, Beacon 2401.1428
Sapphire 02 Nov 01:25:25 01:29:52 27° 109° (ESE) 01:34:20 437.095 MHz 1200 baud AX-25 AFSK
AO-Echo 02 Nov 01:30:52 01:33:50 15° 87° (E) 01:36:46 ?
Uribyol 2 02 Nov 01:44:26 01:47:20 15° 88° (E) 01:50:13 436.500 FM
PCSat 02 Nov 01:46:07 01:51:10 42° 114° (ESE) 01:56:15 145.825 MHz
RS-15 02 Nov 01:47:02 01:56:29 32° 1° (N) 01:06:09 29.354 - 29.394 USB, Beacon 29.352 USB
ITAMSAT 1 02 Nov 01:52:31 01:55:49 17° 89° (E) 01:59:05 435.822 SSB
Oscar 19 02 Nov 01:59:01 01:03:55 43° 98° (E) 01:08:47 437.125 CW, 437.150 USB
JAS-1B 02 Nov 01:31:21 01:38:27 76° 104° (ESE) 01:46:58 435.800 - 435.900 CW/SSB
AO-27 02 Nov 01:39:27 01:44:26 43° 98° (E) 01:49:21 436.795 MHz FM
Oscar 16 02 Nov 01:46:18 01:51:26 74° 287° (WNW) 01:56:32 437.025 USB, Beacon 2401.1428
Gurwin Techsat 1B 02 Nov 02:04:09 02:09:08 40° 97° (E) 02:14:06 435.225 FM
Sapphire 02 Nov 02:07:39 02:12:58 56° 309° (NW) 02:18:20 437.095 MHz 1200 baud AX-25 AFSK
AO-Echo 02 Nov 02:07:55 02:13:17 84° 285° (WNW) 02:18:33 ?
TMSAT-1 02 Nov 02:09:31 02:14:20 34° 96° (E) 02:19:05 436.925 FM
OPAL 02 Nov 02:09:50 02:11:40 12° 51° (NE) 02:13:29 ?
Uribyol 2 02 Nov 02:22:14 02:27:28 81° 287° (WNW) 02:32:38 436.500 FM
PCSat 02 Nov 02:29:36 02:34:39 38° 314° (NW) 02:39:44 145.825 MHz
ITAMSAT 1 02 Nov 02:30:39 02:35:52 73° 288° (WNW) 02:41:03 435.822 SSB
Oscar 19 02 Nov 02:38:45 02:43:05 29° 297° (WNW) 02:47:25 437.125 CW, 437.150 USB
RS-15 02 Nov 03:01:35 03:12:14 49° 34° (NE) 03:23:13 29.354 - 29.394 USB, Beacon 29.352 USB
AO-27 02 Nov 03:19:16 03:23:47 30° 297° (WNW) 03:28:16 436.795 MHz FM
JAS-1B 02 Nov 03:23:00 03:28:37 27° 301° (WNW) 03:35:01 435.800 - 435.900 CW/SSB
Oscar 16 02 Nov 03:27:48 03:29:55 13° 306° (NW) 03:32:02 437.025 USB, Beacon 2401.1428
Gurwin Techsat 1B 02 Nov 03:44:19 03:49:01 33° 296° (WNW) 03:53:42 435.225 FM
OPAL 02 Nov 03:44:37 03:49:39 67° 69° (ENE) 03:54:40 ?
AO-Echo 02 Nov 03:48:17 03:51:14 15° 305° (NW) 03:54:11 ?
AO-7 02 Nov 03:48:23 03:56:29 52° 101° (ESE) 04:04:34 29.400 - 29.500 MHz
TMSAT-1 02 Nov 03:49:25 03:54:17 38° 294° (WNW) 03:59:08 436.925 FM
JAS-2 02 Nov 03:49:42 03:55:32 22° 86° (E) 04:01:13 435.800 - 435.900 CW/SSB, 435.910 FM
Sapphire 02 Nov 03:54:18 03:57:37 16° 332° (NNW) 04:00:57 437.095 MHz 1200 baud AX-25 AFSK
Uosat F 02 Nov 04:00:57 04:05:52 49° 100° (E) 04:10:45 435.120 FM
Uribyol 2 02 Nov 04:03:29 04:06:07 14° 306° (NW) 04:08:45 436.500 FM
STRAND 1 02 Nov 04:07:16 04:10:27 17° 57° (ENE) 04:13:38 ?
ITAMSAT 1 02 Nov 04:12:12 04:14:29 13° 307° (NW) 04:16:45 435.822 SSB
PCSat 02 Nov 04:17:14 04:19:40 13° 338° (NNW) 04:22:06 145.825 MHz
Saudisat 1A 02 Nov 04:32:00 04:36:16 54° 122° (ESE) 04:40:35 436.775 MHz
RS-15 02 Nov 05:14:16 05:25:18 70° 241° (WSW) 05:36:47 29.354 - 29.394 USB, Beacon 29.352 USB
OPAL 02 Nov 05:25:35 05:29:00 18° 267° (W) 05:32:24 ?
JAS-2 02 Nov 05:33:33 05:41:29 89° 286° (WNW) 05:49:09 435.800 - 435.900 CW/SSB, 435.910 FM
Hamsat 02 Nov 05:38:27 05:42:42 77° 102° (ESE) 05:46:57 145.90 MHz
Uosat F 02 Nov 05:40:17 05:44:23 25° 298° (WNW) 05:48:27 435.120 FM
AO-7 02 Nov 05:41:27 05:49:10 44° 302° (WNW) 05:56:53 29.400 - 29.500 MHz
STRAND 1 02 Nov 05:43:50 05:48:59 83° 255° (WSW) 05:54:11 ?
MaSat-1 02 Nov 05:50:01 05:52:32 67° 59° (ENE) 05:54:54 437.345 MHz
Saudisat 1A 02 Nov 06:12:22 06:16:07 27° 322° (NW) 06:19:53 436.775 MHz
SO-67 02 Nov 06:46:03 06:49:29 59° 100° (E) 06:52:53 435.3500 MHz FM
Hamsat 02 Nov 07:16:07 07:18:05 13° 300° (WNW) 07:20:03 145.90 MHz
JAS-2 02 Nov 07:19:32 07:25:31 25° 306° (NW) 07:31:27 435.800 - 435.900 CW/SSB, 435.910 FM
Sapphire 02 Nov 07:26:42 07:29:36 14° 25° (NNE) 07:32:31 437.095 MHz 1200 baud AX-25 AFSK
STRAND 1 02 Nov 07:27:10 07:28:59 12° 274° (W) 07:30:47 ?
RS-15 02 Nov 07:28:56 07:35:33 18° 263° (W) 07:42:19 29.354 - 29.394 USB, Beacon 29.352 USB
AO-7 02 Nov 07:36:18 07:39:51 14° 326° (NW) 07:43:24 29.400 - 29.500 MHz
